Regional Weather Roundup
Issued by NWS State College, PA

Home | Current Version | Previous Version | Text Only | Print | Product List | Glossary Off
Versions: 1 2 3 4 5 6 7 8 9 10 11 12 13 14 15 16 17 18 19 20 21 22 23 24 25 26 27 28 29 30 31 32 33 34 35 36 37 38 39 40 41 42 43 44 45 46 47 48 49 50

966
ASUS41 KCTP 232103
RWRCTP

REGIONAL WEATHER ROUNDUP
NATIONAL WEATHER SERVICE STATE COLLEGE PA
500 PM EDT TUE AUG 23 2016

Note: "fair" indicates few or no clouds below 12,000 feet with no
significant weather and/or obstructions to visibility.

* = STATION THAT DOES NOT REPORT PRECIPITATION /E.G. RAIN...SNOW...ETC/
    THUNDER OR FOG.

PAZ002>004-007>009-013>016-020>023-029>032-232200-
WESTERN PENNSYLVANIA

CITY           SKY/WX    TMP DP  RH WIND       PRES   REMARKS
ERIE           SUNNY     79  60  52 N8        30.25S
MEADVILLE      SUNNY     77  55  46 S8        30.28F
FRANKLIN*      SUNNY     79  57  47 S8        30.29F
NEW CASTLE     FAIR      79  58  48 S5        30.28S
BEAVER COUNTY  SUNNY     79  57  47 S6        30.28F
BUTLER*        NOT AVBL
PITTSBURGH INT CLOUDY    79  54  41 SW6       30.27F
PITTSBURGH     MOSUNNY   80  56  43 SE6       30.27F
INDIANA*       MOSUNNY   79  59  50 SW5       30.32S
LATROBE        PTSUNNY   79  59  50 CALM      30.29S
WASHINGTON CO* MOSUNNY   81  57  44 S3        30.29S
$$

PAZ004>006-010>012-017>019-024>028-033>037-041-042-045-046-049>053-232200-
CENTRAL PENNSYLVANIA

CITY           SKY/WX    TMP DP  RH WIND       PRES   REMARKS
BRADFORD       SUNNY     76  55  48 W7        30.31S
DUBOIS         MOSUNNY   77  54  44 SW6       30.30F
CLEARFIELD     MOSUNNY   80  56  43 VRB7      30.29F
JOHNSTOWN      MOSUNNY   76  56  49 SW7       30.33S
ALTOONA        SUNNY     78  57  48 S8        30.31S
STATE COLLEGE  SUNNY     79  59  50 SW6       30.29F
WILLIAMSPORT   SUNNY     81  57  43 S5        30.25F
SELINSGROVE    SUNNY     82  58  43 SW3       30.26F
FT INDIANTOWN  MOSUNNY   81  56  42 SW7       30.27F
CAPITAL CITY   MOSUNNY   80  56  43 W5        30.26F
HARRISBURG     MOSUNNY   83  58  42 CALM      30.26F
YORK           MOSUNNY   82  57  42 VRB5      30.27F
$$

PAZ038>040-043-044-047-048-054-055-060>062-067>071-232200-
EASTERN PENNSYLVANIA

CITY           SKY/WX    TMP DP  RH WIND       PRES   REMARKS
SCRANTON       SUNNY     79  51  37 W12       30.28F
MOUNT POCONO   SUNNY     73  50  44 W9        30.32F
ALLENTOWN      SUNNY     80  54  40 NW6       30.27F
QUAKERTOWN*    CLEAR     81  52  36 CALM      30.29S
READING        MOSUNNY   80  55  42 W6        30.26F
LANCASTER      MOSUNNY   81  59  47 W5        30.28F
COATESVILLE    CLEAR     79  55  44 VRB5      30.31S
POTTSTOWN      SUNNY     80  54  40 NW3       30.29F
BLUE BELL      SUNNY     79  54  41 W6        30.27S
DOYLESTOWN     SUNNY     83  54  36 NW5       30.27S
WILLOW GROVE   NOT AVBL
NORTH PHILA    SUNNY     83  52  34 W5        30.28S
PHILADELPHIA   MOSUNNY   82  52  35 SW9       30.27F
$$




USA.gov is the U.S. government's official web portal to all federal, state and local government web resources and services.